Chatham, MA

3:47 AM EDT on August 28, 2016 (GMT -0400)
Chatham Municipal

Weather History for KCQX - March, 2014

Change the Weather History Date:

Friday, March 14, 2014

  Actual Average Record
Temperature  
Mean Temperature 28 °F -  
Max Temperature 37 °F 40 °F 59 °F (2002)
Min Temperature 18 °F 28 °F 18 °F (1984)
Degree Days  
Heating Degree Days 38    
Moisture  
Dew Point 14 °F    
Average Humidity 57    
Maximum Humidity 82    
Minimum Humidity 39    
Precipitation  
Precipitation 0.00 in - - ()
Sea Level Pressure  
Sea Level Pressure 30.10 in    
Wind  
Wind Speed 11 mph (WSW)    
Max Wind Speed 18 mph    
Max Gust Speed 29 mph    
Visibility 10 miles    
Events      
Averages and records for this station are not official NWS values.
T = Trace of Precipitation, MM = Missing Value Source: NWS Daily Summary

Daily Weather History Graph

Daily Weather History Graph

Search for Another Location

Airport or City:

Trip Planner

Search our weather history database for the weather conditions in past years. The results will help you decide how hot, cold, wet, or windy it might be!

Date:

Astronomy

Mar. 14, 2014 Rise Set
Actual Time 6:53 AM EDT 6:45 PM EDT
Civil Twilight 6:25 AM EDT 7:13 PM EDT
Nautical Twilight 5:53 AM EDT 7:45 PM EDT
Astronomical Twilight 5:21 AM EDT 8:18 PM EDT
Moon 5:03 PM EDT (3/14) 5:33 AM EDT (3/14)
Length of Visible Light 12h 47m
Length of Day
11h 51m
Waxing Gibbous, 96% of the Moon is Illuminated
Mar 14
Waxing Gibbous
Mar 16
Full
Mar 23
Last Quarter
Mar 30
New
Apr 7
First Quarter

Hourly Weather History & Observations

Time (EDT) Temp. Windchill Dew Point Humidity Pressure Visibility Wind Dir Wind Speed Gust Speed Precip Events Conditions
12:52 AM 19.9 °F 7.9 °F 3.0 °F 48% 29.93 in 10.0 mi NW 11.5 mph 25.3 mph N/A   Clear
1:52 AM 19.9 °F 8.6 °F 5.0 °F 52% 29.96 in 10.0 mi NW 10.4 mph 20.7 mph N/A   Clear
2:52 AM 19.0 °F 8.2 °F 3.9 °F 52% 29.99 in 10.0 mi WNW 9.2 mph 21.9 mph N/A   Clear
3:52 AM 19.0 °F 7.5 °F 3.0 °F 50% 30.02 in 10.0 mi NW 10.4 mph 18.4 mph N/A   Clear
4:52 AM 19.0 °F 6.8 °F 3.0 °F 50% 30.06 in 10.0 mi NW 11.5 mph 17.3 mph N/A   Clear
5:52 AM 18.0 °F 6.9 °F 3.9 °F 54% 30.09 in 10.0 mi WNW 9.2 mph 17.3 mph N/A   Clear
6:52 AM 18.0 °F 8.7 °F 3.9 °F 54% 30.12 in 10.0 mi Variable 6.9 mph - N/A   Clear
7:52 AM 19.9 °F 12.1 °F 5.0 °F 52% 30.16 in 10.0 mi West 5.8 mph - N/A   Clear
8:52 AM 21.9 °F - 5.0 °F 48% 30.18 in 10.0 mi North - - N/A   Clear
9:52 AM 24.1 °F 13.7 °F 3.9 °F 42% 30.22 in 10.0 mi West 10.4 mph 18.4 mph N/A   Clear
10:52 AM 27.0 °F 19.5 °F 5.0 °F 39% 30.20 in 10.0 mi West 6.9 mph - N/A   Clear
11:52 AM 28.0 °F 18.6 °F 12.0 °F 51% 30.21 in 10.0 mi SW 10.4 mph 18.4 mph N/A   Clear
12:52 PM 30.0 °F 20.5 °F 14.0 °F 51% 30.20 in 10.0 mi SW 11.5 mph 20.7 mph N/A   Clear
1:52 PM 32.0 °F 22.1 °F 14.0 °F 48% 30.17 in 10.0 mi SSW 13.8 mph 19.6 mph N/A   Clear
2:52 PM 33.1 °F 22.6 °F 19.9 °F 59% 30.14 in 10.0 mi SW 16.1 mph 26.5 mph N/A   Clear
3:52 PM 33.1 °F 24.9 °F 19.9 °F 59% 30.15 in 10.0 mi SW 10.4 mph 26.5 mph N/A   Clear
4:52 PM 33.1 °F 24.9 °F 19.9 °F 59% 30.12 in 10.0 mi SW 10.4 mph 23.0 mph N/A   Clear
5:52 PM 33.1 °F 22.6 °F 21.9 °F 64% 30.10 in 10.0 mi SSW 16.1 mph 27.6 mph N/A   Clear
6:52 PM 34.0 °F 23.0 °F 23.0 °F 64% 30.09 in 10.0 mi SSW 18.4 mph 28.8 mph N/A   Clear
7:52 PM 35.1 °F 25.5 °F 26.1 °F 70% 30.07 in 10.0 mi SSW 15.0 mph 28.8 mph N/A   Clear
8:52 PM 35.1 °F 25.2 °F 28.0 °F 76% 30.06 in 10.0 mi SSW 16.1 mph 28.8 mph N/A   Clear
9:52 PM 36.0 °F 26.0 °F 28.9 °F 76% 30.05 in 10.0 mi SSW 17.3 mph 28.8 mph N/A   Clear
10:52 PM 37.0 °F 28.9 °F 30.9 °F 79% 30.03 in 10.0 mi SSW 12.7 mph 20.7 mph N/A   Clear
11:52 PM 37.0 °F 28.9 °F 32.0 °F 82% 30.00 in 10.0 mi SSW 12.7 mph 21.9 mph N/A   Clear